{"data":{"norad_id":59017,"epoch":"2026-09-20T08:18:21.275712Z","epoch_age_seconds":168767,"freshness":"FRESH","line1":"1 59017U 24036V   26263.34607958  .00001065  00000+0  42676-4 0  9998","line2":"2 59017  53.1604 236.3953 0001352  85.7633 274.3524 15.34393018145371","mean_motion":15.34393018,"eccentricity":0.0001352,"inclination_deg":53.1604,"raan_deg":236.3953,"arg_perigee_deg":85.7633,"mean_anomaly_deg":274.3524,"bstar":4.2676e-5,"rev_number":14537,"period_min":93.848185119935,"perigee_km":461.79910785503,"apogee_km":463.64887666734,"semimajor_km":6840.8609922612,"source":"CELESTRAK","updated_at":"2026-09-21T09:00:34.027144Z"}}